Temp
18 19 19 19 20 20 20 20 20 20 20 21 21 21 21 22 22 20 19 24 23 23 22 21 21 21 20 18 17 15 17 17 19 17 21 21 22 20 19 20 18 18 19 20 19
17 17 17 17 18 19 19 20 20 20 20 20 21 21 21 22 21 18 24 23 23 23 22 21 18 19 18 18 17 17 16 18 18 17 20 21 21 22 21 21 18 19 18 18 16
16 16 16 16 16 17 17 18 19 20 21 21 21 21 21 22 20 23 24 23 23 22 22 22 20 20 20 18 18 16 18 17 19 18 19 20 19 20 20 20 19 20 20 16 14
14 14 14 14 15 16 17 17 18 19 20 21 21 21 21 21 22 24 24 24 22 21 22 20 19 19 19 19 17 18 17 17 19 19 20 20 18 19 18 23 21 18 19 18 14
14 14 14 14 14 15 16 16 17 18 19 20 21 21 20 19 19 24 24 23 22 21 21 18 19 18 19 17 17 17 17 18 17 17 17 17 18 18 17 19 18 17 16 16 15
14 14 14 14 14 15 15 16 16 18 19 20 20 19 19 17 23 23 23 22 22 21 19 19 18 17 19 18 18 18 17 16 16 17 16 18 20 18 19 17 18 16 17 15 14
14 14 15 15 15 15 16 17 18 19 20 20 20 18 16 18 22 22 21 21 21 20 17 19 20 19 18 19 18 18 18 16 16 17 16 15 18 16 19 17 17 18 17 15 14
14 15 15 15 15 16 17 17 18 19 19 20 19 17 16 20 20 19 20 19 19 19 20 20 20 19 20 18 17 18 17 17 19 15 17 18 19 21 19 18 18 18 19 17 18
14 14 14 14 15 16 17 17 16 16 17 17 15 16 18 19 18 18 18 18 18 18 19 19 19 17 17 16 15 15 16 15 16 16 17 16 17 18 17 17 17 19 20 20 19
15 15 15 15 15 15 17 17 15 15 15 15 15 17 19 19 18 17 17 18 17 16 17 17 13 15 12 15 17 16 14 13 15 19 15 16 15 17 17 17 19 19 19 19 19
14 14 15 14 15 15 17 16 14 14 15 19 18 17 17 18 17 16 17 17 16 16 15 15 14 14 16 14 17 17 15 14 15 16 16 18 18 18 18 17 18 19 20 19 19
13 13 13 14 14 15 16 12 13 12 12 14 12 13 15 16 18 15 17 17 16 15 13 13 13 15 16 15 15 14 14 15 16 16 14 15 17 18 18 19 19 19 19 18 17
13 13 13 13 14 14 13 12 12 11 10 12 12 13 15 16 15 15 15 15 15 13 13 15 16 14 14 15 15 13 14 16 15 14 14 13 15 15 18 15 16 17 16 16 15
12 12 12 12 13 13 12 12 11 10 12 13 15 15 15 15 16 13 13 15 15 15 13 13 14 15 14 15 14 15 14 14 14 14 14 15 16 16 18 18 17 16 16 15 15
13 12 12 12 12 12 13 13 12 10 14 16 16 15 14 15 14 13 13 15 15 14 15 16 15 14 14 14 14 15 16 15 14 13 12 13 13 15 17 17 18 19 19 19 17
12 11 12 12 13 13 12 12 11 15 15 16 15 15 16 15 14 13 13 14 13 14 13 13 13 14 15 14 14 15 15 12 10 11 12 14 14 16 16 18 19 19 19 17 15
11 11 11 11 12 13 12 12 13 14 16 17 17 15 15 15 15 13 14 13 14 16 14 15 13 14 15 16 14 15 14 13 13 10 14 12 12 17 18 18 19 19 17 14 12
11 11 11 10 11 12 12 13 13 14 14 15 16 15 16 15 15 13 13 13 12 14 13 14 16 14 13 15 15 12 14 15 12 13 17 8 14 18 16 18 16 14 14 13 12
11 10 10 12 10 11 11 11 14 14 14 15 15 14 14 14 15 14 12 12 13 12 15 12 13 14 12 13 15 13 13 15 13 9 11 16 15 18 16 16 15 14 11 8 7
9 8 9 11 10 10 11 12 13 14 15 15 14 15 14 14 14 14 13 13 13 11 14 14 13 14 14 14 13 14 14 13 11 12 13 14 13 16 16 14 12 7 5 6 6
7 7 9 9 10 10 10 11 12 13 14 14 14 14 14 14 14 13 13 13 13 14 12 12 11 13 13 12 13 12 12 13 13 12 12 14 14 15 12 7 6 6 6 5 5
7 7 8 9 9 10 11 11 12 12 13 12 13 12 13 13 13 12 13 14 14 13 12 12 11 11 13 12 12 13 14 13 13 12 10 12 13 16 9 7 6 5 5 5 5
6 6 8 8 9 9 11 11 12 11 11 12 12 12 12 12 11 12 12 12 12 12 12 10 11 11 11 12 10 11 11 12 11 9 11 11 12 12 11 6 5 4 4 4 4
4 4 6 7 7 9 9 9 10 11 10 11 11 11 10 10 11 11 10 11 10 11 10 9 9 11 11 13 10 10 9 10 9 11 11 11 11 12 8 4 3 3 3 3 3
2 3 4 3 5 8 9 8 8 8 10 10 10 10 10 9 9 9 9 8 9 9 9 9 9 9 9 10 7 8 7 8 7 8 8 9 9 11 5 3 3 3 3 3 3
1 2 2 4 5 5 7 7 7 7 8 8 8 8 7 8 8 8 7 7 8 7 7 6 7 5 6 7 8 8 8 8 8 8 8 8 8 3 2 3 3 3 2 3 3
1 2 2 2 2 3 3 5 4 5 5 4 4 4 4 6 4 4 3 3 4 4 5 5 5 7 7 7 5 4 6 7 8 8 7 7 3 -0 0 2 2 2 2 2 2
Height
834 833 833 832 831 831 830 829 828 827 826 825 824 822 821 819 817 815 814 810 809 812 814 816 819 820 821 825 827 832 850 858 844 849 829 818 819 815 812 812 812 808 803 796 796
834 833 833 832 831 830 829 828 827 826 825 824 823 822 820 817 813 810 808 807 809 811 813 814 819 820 826 827 830 836 853 843 830 829 824 816 817 812 814 811 810 805 796 794 794
834 833 832 831 830 829 828 826 825 824 822 821 820 820 818 817 814 805 805 805 808 810 813 815 817 820 826 827 830 835 837 828 821 820 816 817 815 810 813 811 799 798 791 790 791
834 833 832 831 830 828 827 825 823 822 820 819 818 818 817 817 830 804 804 805 807 810 813 815 819 824 829 831 826 831 825 822 816 814 815 814 811 810 810 788 783 783 784 784 786
833 832 831 830 828 827 825 823 821 820 818 816 816 816 816 817 811 802 803 803 805 808 810 813 818 824 828 829 828 830 823 817 815 815 813 813 807 810 800 782 780 781 781 779 779
832 831 830 829 828 826 824 821 819 817 816 814 814 814 815 821 800 799 800 801 802 804 807 810 813 815 821 824 826 822 820 817 814 811 810 810 797 803 783 780 778 779 772 774 773
831 830 829 827 826 824 821 818 815 812 811 811 810 812 813 804 798 798 799 799 801 802 805 807 808 811 816 820 817 817 821 815 811 804 807 808 808 801 774 780 779 771 770 767 765
830 829 828 826 824 821 818 814 810 807 806 806 807 810 810 796 795 797 799 799 800 803 804 805 807 811 813 814 818 820 823 826 800 806 800 801 804 777 775 778 776 770 762 762 755
829 828 827 825 823 819 816 812 807 806 804 804 808 809 806 794 794 794 796 798 801 804 805 807 809 816 817 825 833 831 831 830 817 797 798 803 800 781 776 779 775 767 759 753 748
828 827 826 824 822 819 814 809 807 806 805 806 808 813 797 795 794 793 794 798 800 804 809 811 820 823 832 830 833 826 833 830 822 794 801 801 797 784 780 776 764 756 751 746 747
825 825 824 823 821 818 814 810 811 810 806 802 801 802 796 794 795 796 795 797 800 806 817 817 826 827 812 815 812 814 819 822 812 799 801 786 781 780 772 769 757 746 739 742 739
824 823 822 821 820 818 815 817 821 824 818 799 797 795 791 792 794 794 797 800 801 809 816 824 826 810 807 811 815 818 819 814 803 795 804 793 778 769 759 750 747 739 734 740 737
822 822 821 820 819 819 817 819 819 819 823 802 796 796 792 791 794 793 795 798 802 813 814 812 803 803 809 811 813 817 817 803 807 803 798 796 777 770 749 748 742 737 741 739 739
820 821 820 819 821 819 819 818 818 818 819 805 796 793 793 792 793 795 797 799 801 804 811 811 801 802 809 808 808 811 800 803 806 808 807 794 782 768 747 741 739 740 741 741 741
817 820 819 819 820 820 820 817 816 817 829 795 795 793 792 797 798 797 796 797 802 804 804 800 801 804 805 800 800 800 791 796 800 809 808 804 808 765 750 747 740 732 732 733 735
815 818 819 819 819 820 819 817 819 822 819 797 792 794 795 795 797 798 798 798 801 804 805 802 798 797 793 792 794 790 793 805 819 814 812 788 792 765 757 741 737 730 730 732 737
815 815 819 818 817 817 819 817 828 826 800 795 792 794 794 794 795 799 800 803 802 803 805 798 797 792 789 792 797 796 802 814 814 828 796 791 794 752 739 735 734 737 738 740 742
810 815 815 818 815 816 822 823 818 800 803 795 794 795 794 794 792 800 802 803 802 799 806 800 789 789 788 785 786 799 795 802 817 807 772 811 773 742 738 733 741 741 741 745 750
808 812 815 811 815 815 821 825 797 794 794 793 794 800 800 796 795 795 804 800 795 795 793 802 788 780 785 779 776 793 794 780 791 808 807 764 752 727 733 745 745 746 753 767 768
807 806 808 809 811 816 816 807 799 788 789 789 797 796 801 799 797 797 795 790 793 794 787 787 793 776 778 779 779 778 776 787 797 793 787 767 768 739 740 753 757 773 778 772 766
807 806 803 804 811 813 809 803 796 790 789 797 792 794 796 794 794 797 796 786 787 785 789 789 803 782 779 779 776 786 781 778 774 780 775 764 755 736 749 771 779 778 780 778 773
804 809 801 804 811 804 798 792 794 793 792 795 793 792 794 796 794 795 789 786 782 784 790 784 786 783 771 768 768 765 765 764 770 772 774 757 749 735 763 771 776 778 776 779 780
803 804 802 804 800 800 794 793 787 789 792 791 792 790 790 795 802 786 785 782 784 783 785 790 780 776 777 767 772 768 766 764 768 775 757 758 746 742 754 768 772 779 780 779 779
805 810 805 803 800 795 797 796 791 785 790 788 787 790 795 794 793 790 793 785 787 781 787 791 786 773 766 757 770 774 775 773 774 759 750 747 747 746 763 774 779 782 781 779 777
806 809 807 813 804 797 801 793 795 798 789 788 786 787 793 795 796 794 793 794 788 786 788 788 780 779 772 770 784 781 784 782 781 775 773 758 760 748 769 780 779 778 780 777 773
806 810 809 809 804 806 799 794 795 793 797 791 799 798 799 794 795 795 801 799 791 794 794 794 781 790 786 776 775 775 774 766 765 763 761 758 750 774 779 781 779 776 777 774 770
806 806 807 809 806 810 807 797 803 802 802 807 810 810 809 802 807 810 808 809 807 803 799 797 792 784 773 777 786 791 770 762 759 753 754 757 775 786 786 780 777 776 775 773 770
Wind_Speed
9 9 10 10 10 10 10 10 10 11 11 11 10 11 12 14 14 8 7 5 6 12 11 12 8 7 5 3 3 3 3 2 5 6 5 2 1 3 1 3 4 7 5 5 5
10 11 11 12 12 12 11 11 12 12 12 13 13 13 15 16 13 9 7 6 6 15 14 14 5 6 3 2 1 4 3 8 5 5 5 3 4 3 2 5 5 6 9 15 9
10 11 12 13 14 14 14 14 14 14 14 14 13 12 13 13 6 4 2 9 10 14 8 7 9 4 2 2 4 5 6 5 5 7 4 4 3 3 4 7 10 9 8 6 11
11 12 13 14 15 15 15 16 17 16 16 16 15 13 12 4 6 2 1 7 11 14 10 9 4 4 3 5 4 3 8 6 4 4 2 4 2 4 8 19 7 11 7 4 8
10 12 13 15 16 18 18 19 19 17 17 17 16 12 5 2 9 8 7 7 13 16 12 6 5 5 5 4 3 4 4 5 5 6 8 5 14 6 13 18 10 9 8 11 9
9 10 12 14 16 18 20 21 21 20 19 18 15 9 2 5 7 9 7 10 14 19 11 10 7 7 3 4 6 3 4 7 6 7 6 7 16 6 11 8 12 7 14 9 11
8 10 12 14 17 19 20 21 22 21 20 18 15 3 2 15 6 7 8 9 13 14 6 9 9 5 5 2 3 2 7 8 5 4 7 7 9 11 18 4 13 15 12 10 12
8 10 12 15 17 20 21 22 23 20 16 12 8 6 7 6 8 11 12 5 7 10 8 6 10 4 3 2 4 3 1 4 4 5 2 7 12 19 7 5 11 13 12 9 15
7 10 13 16 19 22 21 25 13 9 7 3 4 4 8 4 2 5 9 4 7 6 4 6 5 2 1 3 4 2 5 7 9 9 4 7 9 8 5 5 13 16 19 19 18
7 10 13 16 19 23 21 18 5 4 4 6 5 2 4 3 0 2 6 11 4 6 4 4 5 3 3 3 7 8 5 5 6 6 7 7 15 15 15 16 23 22 19 20 16
8 9 12 15 17 21 20 4 5 3 3 3 5 5 4 1 2 2 4 7 5 5 5 1 4 8 15 14 2 3 5 6 8 8 4 22 19 15 15 16 23 24 21 14 15
12 11 10 12 14 13 10 5 3 2 8 9 8 7 5 0 2 2 7 5 4 6 6 3 7 15 2 4 7 7 10 14 8 10 4 12 20 20 22 20 20 23 19 10 11
11 11 8 9 12 4 5 3 2 2 2 8 4 3 3 7 6 6 8 4 4 6 8 9 6 4 7 5 8 5 6 10 10 6 6 7 8 4 7 5 7 13 8 9 7
9 8 7 9 3 6 2 5 2 1 2 6 2 2 0 1 1 3 1 1 2 8 6 6 3 6 4 6 8 9 10 11 6 4 4 5 9 5 8 10 2 7 7 8 7
9 6 5 4 6 3 2 5 1 1 6 3 1 1 1 2 1 4 1 2 3 4 4 7 5 4 4 8 7 10 1 2 2 3 3 3 4 6 3 6 7 4 5 2 2
3 2 3 1 2 4 3 4 3 2 7 4 1 0 0 1 1 1 2 3 1 2 2 7 3 4 7 4 6 3 3 5 4 2 5 10 8 1 4 4 1 8 2 3 5
1 1 3 4 2 0 1 2 2 4 2 3 3 2 1 3 2 3 3 3 4 1 4 1 4 3 2 1 2 2 4 4 4 1 7 3 3 5 5 5 5 6 9 8 9
3 4 5 8 6 2 0 1 8 6 7 2 2 1 3 4 2 2 1 4 6 3 2 3 17 8 6 7 7 7 8 5 6 6 12 2 9 7 8 2 6 2 4 7 20
7 5 5 13 13 9 3 7 5 6 6 1 6 6 3 2 4 3 6 5 5 10 8 5 10 1 5 4 7 4 6 5 2 3 2 8 12 14 5 5 7 11 17 16 14
2 3 6 11 12 8 4 14 6 4 3 0 4 5 7 3 2 3 4 3 4 7 1 3 7 7 3 2 3 7 3 1 1 3 9 6 5 13 6 9 14 15 13 14 15
4 2 2 9 16 3 8 7 6 7 2 4 3 6 9 8 7 6 5 3 5 4 6 3 5 7 3 6 8 1 4 4 3 4 5 7 8 4 8 12 8 5 7 9 11
5 1 1 20 5 3 11 5 5 8 7 4 1 5 11 11 12 11 14 14 1 2 3 6 5 7 13 7 3 3 7 8 5 7 5 6 8 14 13 11 9 9 11 11 10
3 1 1 4 6 9 4 5 6 5 9 4 6 5 1 5 9 8 6 4 6 4 3 2 4 5 5 3 3 3 3 6 5 2 11 11 5 11 10 13 11 10 10 9 10
2 1 2 1 2 2 3 10 10 2 6 7 7 5 7 11 11 9 8 5 0 2 1 2 4 13 15 13 4 7 6 4 4 7 11 9 8 11 5 12 9 7 7 7 8
2 3 2 3 4 9 14 6 2 3 3 3 2 4 3 5 4 5 4 4 3 2 3 5 10 9 13 13 4 8 10 16 16 16 11 15 20 22 1 3 6 4 6 7 6
3 3 2 2 3 1 8 5 12 11 5 15 11 11 6 11 9 14 6 5 8 3 3 2 4 1 4 11 14 17 17 18 17 17 14 17 21 7 3 2 4 6 3 9 9
2 1 3 2 2 3 4 3 2 1 1 6 5 4 4 1 2 2 3 6 5 4 2 3 3 8 20 7 4 7 14 14 13 18 12 16 3 1 2 4 4 5 5 6 7
Wind_Direction
359 357 355 355 354 350 346 343 340 338 337 338 339 340 339 334 321 288 238 244 210 194 176 158 153 139 120 94 98 133 75 212 244 169 248 243 273 190 158 252 209 205 216 241 218
355 355 354 351 348 343 337 331 327 325 323 324 329 333 335 333 319 253 262 216 202 185 172 162 144 135 67 100 76 110 144 220 213 197 222 253 214 234 207 257 243 265 258 246 230
354 352 350 350 348 343 340 335 325 317 311 311 315 323 331 335 337 249 340 192 188 183 186 166 140 107 145 128 195 172 206 212 247 229 223 242 263 213 184 264 229 218 237 213 217
351 351 352 351 347 342 338 333 327 322 310 306 307 316 326 326 296 218 183 186 188 184 158 129 92 124 182 209 183 215 245 212 249 222 214 247 297 221 203 255 243 225 225 191 212
349 350 351 350 348 345 341 331 324 318 309 304 302 309 319 31 249 256 257 215 187 180 178 142 148 149 197 197 155 227 248 243 228 251 254 288 263 228 243 254 269 271 244 241 235
345 349 348 349 347 345 341 335 327 314 307 301 298 303 179 235 244 249 232 186 191 183 177 161 190 198 193 212 182 216 258 268 273 245 243 209 272 146 260 268 284 245 266 244 237
344 350 351 351 348 346 341 333 321 312 306 296 287 262 208 242 243 237 213 204 201 198 155 200 170 146 144 263 233 282 303 311 217 253 228 160 284 233 250 265 281 288 279 273 244
343 350 351 350 347 345 340 333 323 317 311 291 263 164 244 266 260 254 235 203 190 200 203 191 190 143 174 151 352 250 148 297 268 168 247 173 258 272 278 246 271 283 282 275 277
338 344 347 346 345 345 341 331 333 354 19 73 133 155 263 288 284 265 212 194 153 159 145 136 126 142 94 132 11 308 241 219 307 218 141 184 251 266 290 276 272 278 282 279 273
325 339 341 343 344 345 343 330 347 2 49 75 91 17 271 294 210 129 166 154 122 113 66 62 53 121 38 115 236 229 226 247 250 284 170 217 250 278 285 288 279 279 271 272 278
296 311 323 332 340 349 352 341 5 345 20 217 212 227 259 248 189 53 145 134 105 82 166 49 125 203 219 207 264 285 242 253 260 258 310 286 279 278 273 263 272 277 276 277 275
290 296 310 324 335 350 10 66 106 260 302 264 248 260 268 114 319 163 165 149 152 178 117 60 218 227 119 167 227 250 271 272 277 269 183 270 284 282 265 270 256 267 282 284 288
285 296 309 326 334 360 46 79 305 172 228 293 218 225 250 162 212 230 164 147 162 158 192 200 218 166 193 195 248 212 231 264 257 326 253 309 276 231 274 253 254 262 278 277 281
281 303 312 329 333 344 26 354 342 216 339 278 283 313 101 160 283 12 347 73 195 218 190 232 272 194 167 214 190 265 234 254 275 353 260 23 295 208 257 268 342 295 302 302 319
280 283 305 352 334 332 322 340 349 219 303 254 250 289 74 153 172 22 35 46 239 189 134 249 179 181 176 221 150 230 180 243 168 199 344 324 291 258 214 276 260 242 193 208 323
311 270 274 250 254 272 283 346 317 14 244 316 127 31 72 113 49 76 71 58 92 187 256 242 325 204 221 221 198 115 81 47 49 67 279 206 193 286 187 207 301 349 355 84 357
359 343 206 192 189 243 208 6 33 201 313 260 226 150 201 218 209 170 147 179 190 253 254 305 225 279 184 194 34 90 70 322 325 14 236 343 254 237 247 267 17 305 322 11 12
272 287 242 219 223 209 203 113 227 176 220 339 284 165 218 175 202 99 85 277 228 156 175 203 287 184 175 204 193 187 171 201 223 263 275 92 258 266 230 298 355 29 258 16 19
273 263 230 247 212 188 118 232 241 170 194 214 334 302 270 256 208 171 209 241 242 184 219 203 265 240 212 167 166 164 189 209 266 53 318 252 273 295 191 73 18 10 35 44 39
210 167 227 245 199 165 209 241 240 184 127 130 245 231 260 223 178 205 199 182 279 201 101 350 305 212 288 77 257 183 153 154 333 230 240 260 248 245 14 45 42 37 22 15 16
158 147 226 197 176 175 222 231 264 224 237 240 228 264 286 303 254 256 225 287 233 211 186 149 196 266 358 200 202 142 243 230 287 173 231 251 244 220 63 85 92 57 38 21 22
154 182 54 157 188 191 231 197 193 274 273 294 280 255 263 278 274 273 270 254 220 112 267 210 203 227 264 258 241 235 232 187 220 219 217 246 248 280 95 70 84 52 34 28 23
153 243 328 210 210 221 243 256 249 256 238 213 247 224 335 294 290 253 269 342 344 232 218 287 215 294 266 265 51 214 258 251 276 225 244 264 265 360 29 48 51 59 42 31 17
101 116 308 278 270 234 227 266 255 244 249 209 237 256 280 271 260 275 282 284 172 160 105 23 256 246 256 269 323 261 221 260 238 261 274 253 288 298 2 345 22 27 24 13 1
76 213 242 218 267 240 235 265 230 278 264 59 314 237 251 280 273 238 291 346 312 318 264 210 258 250 262 267 299 285 289 276 272 273 266 282 286 278 255 352 327 310 331 333 356
138 133 339 248 304 240 198 237 252 267 251 274 242 291 300 267 261 295 297 262 267 312 307 280 270 226 254 278 281 276 271 270 274 275 266 262 262 78 126 252 277 298 311 329 338
156 105 98 282 171 149 218 211 106 41 84 78 69 335 321 306 87 263 251 269 268 294 262 244 281 270 271 284 306 262 247 260 260 262 261 260 270 191 252 263 278 307 273 284 308